Regional Weather Roundup
Issued by NWS

Home | Current Version | Previous Version | Text Only | Print | Product List | Glossary On
Versions: 1 2 3 4 5 6 7 8 9 10 11 12 13 14 15 16 17 18 19 20 21 22 23 24 25 26 27 28 29 30 31 32 33 34 35 36 37 38 39 40 41 42 43 44 45 46 47 48 49 50
750
ASUS43 KLSX 030110
RWRMO

WEATHER SUMMARY FOR MISSOURI
NATIONAL WEATHER SERVICE SPRINGFIELD MO
700 PM CST FRI DEC 02 2016

NOTE: "FAIR" INDICATES FEW OR NO CLOUDS BELOW 12,000 FEET WITH NO
       SIGNIFICANT WEATHER AND/OR OBSTRUCTIONS TO VISIBILITY.
       CURRENT SKY AND/OR WEATHER CONDITIONS ARE NOT AVAILABLE FOR
       CHILLICOTHE AND FARMINGTON.

MOZ001>031-035>038-043-044-053-054-030200-
...NORTHERN AND WESTERN MISSOURI...

CITY           SKY/WX    TMP DP  RH WIND       PRES   REMARKS
KANSAS CTY INT PTCLDY    38  24  57 NE6       30.31R
KANSAS C DTWN  CLEAR     42  28  57 CALM      30.32R
LEE`S SUMMIT   CLEAR     43  27  53 NE3       30.32R
ST JOSEPH      CLEAR     30  24  78 N5        30.33R WCI  25
CHILLICOTHE      N/A     31  26  82 CALM      30.33S
KIRKSVILLE     CLEAR     32  27  81 N3        30.33R

$$
MOZ066>068-077>081-088>096-101>105-030200-
...SOUTHWEST MISSOURI...

CITY           SKY/WX    TMP DP  RH WIND       PRES   REMARKS
SPRINGFIELD    CLOUDY    49  24  37 NE8       30.26R
JOPLIN         MOCLDY    50  27  40 E9        30.24F
BRANSON        CLOUDY    46  32  57 E6        30.25S

$$
MOZ032>034-039>042-045>050-055>058-069>072-030200-
...CENTRAL MISSOURI...

CITY           SKY/WX    TMP DP  RH WIND       PRES   REMARKS
COLUMBIA       CLEAR     40  27  59 N6        30.31R
JEFFERSON CITY CLEAR     35  26  69 W3        30.32R
ROLLA          PTCLDY    33  25  72 CALM      30.29R
SEDALIA        CLEAR     42  26  53 CALM      30.33R
WHITEMAN AFB   CLEAR     38  27  63 CALM      30.31R
WARRENSBURG    CLEAR     41  27  56 CALM      30.32R
OSAGE BEACH    CLOUDY    42  25  50 NE6       30.31R

$$
MOZ051-052-059>065-030200-
...EAST CENTRAL MISSOURI...

CITY           SKY/WX    TMP DP  RH WIND       PRES   REMARKS
ST LOUIS INTL  PTCLDY    39  27  62 CALM      30.33R
SPIRIT OF STL  CLEAR     32  29  88 CALM      30.33R

$$
MOZ072>076-082>087-097>100-106>115-030200-
...SOUTH CENTRAL AND SOUTHEAST MISSOURI...

CITY           SKY/WX    TMP DP  RH WIND       PRES   REMARKS
CAPE GIRARDEAU CLEAR     43  30  60 CALM      30.32R
FARMINGTON     PTCLDY    38  28  67 CALM      30.32R
WEST PLAINS    PTCLDY    41  30  65 CALM      30.30R

$$




USA.gov is the U.S. government's official web portal to all federal, state and local government web resources and services.